Wind_Speed
6 7 7 7 7 6 4 3 3 5 5 4 4 4 5 4 5 5 5 5 5 5 5 5 5 5 5 5 5 5 4 4 4 4 4 4 4 4 4 4 4 4 3 3 3 3 4 4 4
6 6 6 6 6 2 2 0 5 6 6 5 5 5 6 5 5 5 5 6 5 5 5 5 5 5 5 5 5 5 6 6 5 5 5 5 5 4 4 4 4 4 4 4 4 4 4 5 5
6 6 6 5 3 5 1 2 7 7 6 6 6 6 6 6 6 6 6 6 6 6 5 6 6 5 5 5 6 6 6 6 6 6 5 5 5 5 5 5 5 5 5 5 5 4 4 5 5
6 6 5 4 4 3 3 5 7 7 6 6 7 6 6 6 6 6 6 6 5 6 6 6 6 6 5 6 6 7 7 7 7 6 6 6 6 6 6 6 6 6 5 6 6 5 4 5 5
6 6 4 1 6 5 6 8 6 6 6 5 7 8 7 7 7 6 6 6 5 5 6 6 6 6 6 6 6 7 7 7 7 7 7 7 7 6 6 6 6 6 6 6 6 6 5 5 5
7 7 3 5 8 8 7 7 6 5 6 6 7 8 8 7 6 6 6 6 6 6 6 6 6 6 6 6 7 7 8 8 8 8 7 7 7 7 7 7 6 6 7 7 6 6 6 5 5
8 6 4 6 8 8 8 7 7 6 7 7 8 8 8 8 6 7 6 6 6 6 6 6 6 7 6 7 7 8 8 8 8 8 8 8 7 7 7 7 8 7 7 7 7 6 6 5 5
9 8 6 5 8 9 9 8 8 7 7 8 9 9 8 8 7 7 6 6 7 7 6 6 7 7 7 8 8 9 9 9 9 9 9 8 8 8 8 8 8 8 8 7 7 6 6 6 5
9 9 7 5 9 12 10 9 8 7 7 8 9 10 9 9 8 8 7 7 7 7 7 7 7 7 8 8 9 10 10 10 9 9 9 9 9 9 9 9 9 9 8 8 7 7 7 7 5
11 9 9 9 12 13 11 9 10 9 9 9 10 10 9 9 9 8 8 7 7 7 7 8 8 8 8 9 9 10 11 11 10 10 10 11 10 9 9 9 9 9 9 9 8 8 7 7 7
11 11 10 12 13 14 13 11 10 9 9 9 9 9 10 9 9 8 8 8 7 7 8 9 9 10 10 10 10 11 11 11 11 11 11 12 12 10 9 10 10 10 10 9 9 9 9 8 8
13 12 12 14 16 16 14 12 11 10 10 11 11 9 11 10 9 9 9 8 8 8 8 9 9 10 10 11 11 11 12 12 12 13 13 13 13 12 11 10 10 10 10 10 9 9 9 9 8
14 13 15 16 15 14 14 13 11 11 11 12 12 11 11 10 9 8 9 10 9 8 8 9 10 10 10 11 12 12 13 13 13 14 14 14 14 13 12 11 11 11 12 11 11 10 9 9 9
15 15 16 15 15 14 13 13 12 11 11 12 12 12 11 10 9 9 9 10 10 9 10 10 10 10 11 11 12 13 14 14 14 14 14 15 15 14 13 13 12 12 13 12 12 12 11 10 10
17 16 16 15 15 14 13 13 12 11 12 13 13 13 13 10 10 10 10 11 11 10 11 11 10 10 11 12 13 13 14 15 14 14 15 15 15 15 14 13 13 13 13 13 13 12 12 11 11
15 16 16 14 14 14 13 12 11 13 14 14 13 13 15 12 12 12 11 11 11 11 11 11 10 10 11 12 13 13 14 14 14 14 14 15 15 15 14 14 14 14 14 13 13 13 13 12 12
14 15 15 14 14 15 14 13 11 14 15 13 13 14 14 12 13 13 12 12 12 11 11 11 11 11 11 12 13 13 14 15 15 14 14 14 15 14 15 15 14 14 14 14 13 13 12 13 13
15 15 15 13 13 16 15 14 13 14 15 14 14 14 15 14 13 13 13 13 12 11 12 12 12 12 13 13 13 13 14 15 15 15 15 15 16 16 16 15 15 15 15 14 13 12 12 13 13
16 17 17 13 14 17 16 16 14 15 16 15 15 15 16 15 14 14 14 14 13 12 13 13 13 14 14 14 14 14 14 15 16 16 15 16 17 17 16 16 16 16 15 14 14 13 13 13 13
18 17 15 15 17 18 17 16 14 15 17 16 16 16 16 16 16 16 16 14 15 15 14 14 15 15 15 15 15 15 15 16 16 17 16 17 18 17 17 16 16 16 15 15 14 14 14 14 14
19 18 17 17 17 18 17 17 17 16 18 18 17 17 16 16 18 17 16 16 16 14 14 15 16 16 16 16 16 16 16 17 17 17 17 17 18 18 17 16 17 16 15 15 15 14 15 15 15
18 17 19 19 19 19 17 18 18 18 18 19 18 17 17 17 19 19 18 18 17 17 16 15 16 17 17 17 16 17 17 17 18 18 18 19 18 17 17 17 16 16 15 14 15 15 16 16 16
17 18 20 21 20 20 18 18 18 17 19 18 18 17 17 17 18 19 19 19 19 18 18 16 16 17 17 17 17 17 17 18 19 18 19 19 18 18 17 17 16 15 14 15 16 16 16 16 16
19 19 20 20 20 19 17 18 20 19 20 19 19 19 19 18 19 20 20 21 20 20 20 19 18 18 18 18 17 17 18 19 19 19 19 20 19 18 17 17 16 16 15 15 16 16 16 16 16
20 20 20 20 19 18 16 19 21 21 20 20 20 20 21 21 21 21 21 21 22 22 21 20 19 18 19 19 18 18 19 19 20 20 20 21 19 19 18 17 16 16 16 16 16 16 16 16 15
20 19 19 19 18 18 18 21 21 21 23 22 21 22 22 21 21 21 21 22 22 21 21 20 20 19 19 19 18 19 19 20 20 21 21 21 20 20 20 18 17 17 17 17 17 17 17 17 16
20 20 19 20 19 19 18 18 22 23 25 25 22 22 21 21 21 21 21 21 21 21 21 21 21 20 20 20 20 20 20 21 21 21 21 21 21 21 20 18 18 18 17 17 17 17 17 17 17
21 21 21 22 22 22 21 21 23 25 25 24 22 22 22 21 22 22 22 22 21 21 22 22 22 22 21 21 21 22 22 22 22 22 22 22 21 21 21 19 19 19 19 18 19 18 17 17 17
21 22 23 24 24 23 23 22 23 25 26 26 25 25 24 23 23 23 22 22 23 23 23 23 23 23 23 22 23 23 24 24 23 22 22 22 22 22 21 20 20 20 20 20 19 19 18 18 18
23 23 24 25 25 24 23 25 24 23 24 25 25 25 25 24 24 24 24 24 25 24 24 24 24 24 24 24 24 24 24 24 23 23 23 23 23 23 22 21 21 21 20 20 20 19 19 19 19
Wind_Direction
118 104 99 97 74 56 67 45 306 299 302 299 310 310 311 317 327 331 335 344 348 347 354 350 352 352 350 344 339 338 338 337 335 337 337 337 334 327 324 321 319 321 321 320 324 325 318 318 313
132 123 118 100 66 343 80 256 282 296 304 312 314 311 310 320 329 331 332 336 340 338 344 339 344 345 343 339 336 334 332 331 330 332 331 328 329 328 325 324 318 318 318 315 317 319 313 311 306
147 140 124 91 8 301 277 265 288 306 306 311 311 311 311 322 326 328 327 331 335 335 339 337 338 337 335 333 331 329 329 331 331 329 324 324 327 326 324 323 320 316 311 311 312 313 310 310 301
156 147 115 68 305 299 295 292 301 307 306 313 312 311 313 319 323 326 327 331 334 335 338 336 335 332 333 333 334 334 332 332 331 326 323 323 326 323 323 319 317 315 311 309 309 310 304 303 298
163 136 114 247 275 272 267 281 295 299 304 312 312 310 311 312 319 324 326 331 334 337 340 345 340 336 336 337 337 339 336 333 329 323 321 320 320 321 322 318 316 314 311 306 306 306 303 302 299
166 137 150 252 256 259 267 278 282 287 294 306 303 306 307 309 322 327 329 328 332 340 341 345 342 342 339 339 336 336 335 332 326 322 318 317 317 321 323 320 316 313 309 305 305 303 300 300 301
175 151 200 257 261 262 268 272 283 282 297 297 299 305 305 308 326 330 331 332 335 343 345 344 343 342 340 342 341 337 334 332 328 324 319 317 316 318 318 316 313 312 312 304 304 306 302 299 300
186 174 202 246 260 257 265 267 269 278 291 291 294 295 300 307 318 321 326 328 335 340 345 344 345 342 340 340 340 337 335 332 329 329 324 319 316 317 315 314 313 308 308 304 298 300 299 301 299
195 188 197 229 256 252 256 263 261 269 281 290 288 292 297 306 316 320 322 324 330 335 341 340 344 341 339 336 336 334 335 332 327 327 324 319 314 315 316 315 312 309 307 304 296 298 295 298 296
206 206 204 225 246 250 251 257 262 267 274 283 287 286 291 302 307 312 317 318 323 330 332 334 336 336 333 333 335 334 333 333 328 324 322 321 317 315 315 315 314 311 310 307 298 297 294 292 294
217 217 210 228 235 244 246 249 256 263 271 275 279 288 295 297 299 305 312 312 314 320 323 325 327 330 329 327 327 329 330 331 327 327 324 325 321 317 316 316 315 312 310 308 304 299 296 294 294
228 218 219 231 234 238 242 247 255 257 263 274 276 288 297 297 297 300 303 307 306 308 315 317 319 323 326 326 324 326 326 326 325 325 324 326 325 320 316 315 314 311 308 307 303 298 292 291 292
230 224 229 235 239 239 244 246 250 257 259 268 274 280 287 296 294 295 299 302 309 310 314 315 313 319 325 326 323 323 323 323 324 326 325 327 326 320 312 311 312 309 307 306 302 297 292 290 288
229 226 233 238 244 245 245 248 251 256 261 267 276 284 285 288 293 293 296 297 301 307 310 313 309 313 320 322 324 322 321 322 322 323 323 325 325 319 313 311 310 308 305 302 301 297 291 285 283
225 230 236 240 245 249 249 248 254 258 261 269 276 282 283 282 287 291 296 300 298 300 304 307 306 311 317 320 323 328 327 327 325 322 321 322 321 318 312 309 308 306 303 302 299 293 287 286 283
229 234 239 242 247 251 252 251 249 255 260 264 269 272 277 285 292 291 294 299 302 306 306 308 304 310 316 320 325 327 330 330 326 321 320 320 319 317 316 311 306 306 304 300 296 289 285 283 280
232 240 243 244 250 255 253 252 248 257 262 265 266 269 275 283 287 290 295 297 300 305 307 308 307 308 312 316 321 323 328 330 327 321 319 319 320 320 317 313 306 303 303 299 295 291 286 284 281
229 239 244 245 247 256 256 252 246 255 257 261 265 272 280 282 284 287 291 295 296 301 303 305 304 304 308 312 316 319 325 327 327 323 318 318 318 320 315 312 308 304 301 298 295 292 288 286 283
227 229 233 230 239 250 253 253 246 250 258 260 264 269 274 281 279 284 288 293 295 297 298 300 302 304 306 308 312 315 319 321 323 323 318 318 317 315 311 310 306 304 301 297 295 290 287 286 287
228 236 235 228 241 247 248 249 249 245 253 258 262 263 267 274 276 281 288 293 296 294 295 297 298 302 305 306 308 312 314 316 318 320 319 317 314 310 311 310 306 304 301 295 292 291 288 288 288
226 230 233 233 239 248 250 250 250 244 249 253 257 262 268 272 275 277 287 291 292 293 295 296 295 298 301 303 305 309 310 312 315 317 317 315 312 310 308 308 307 305 304 297 292 292 292 289 288
231 230 234 236 238 242 250 256 252 248 251 254 256 261 269 274 278 282 287 288 289 291 293 294 294 297 298 299 300 303 306 308 310 312 315 315 313 314 312 308 307 306 305 297 295 293 292 291 289
229 232 236 235 240 243 243 251 250 250 250 257 263 263 269 273 276 280 283 286 288 288 290 291 293 295 296 295 296 300 305 307 308 312 316 316 312 310 311 310 309 307 304 299 295 294 293 293 291
233 233 240 243 244 247 246 247 248 245 249 252 259 263 269 272 274 276 279 284 286 284 285 287 287 289 290 291 293 296 301 304 307 310 312 313 309 308 309 309 306 304 303 302 299 296 293 294 292
236 235 239 243 247 251 255 257 252 254 255 253 260 265 270 270 274 277 279 280 281 281 282 286 287 287 287 288 290 293 298 302 304 306 308 310 308 306 307 306 304 303 301 300 299 298 295 294 294
239 239 240 244 247 248 246 252 254 249 258 262 262 265 268 271 276 278 279 279 279 279 281 283 285 285 284 285 286 289 293 296 300 303 306 307 306 304 303 301 301 299 298 298 297 297 296 295 294
241 238 240 246 247 251 250 247 246 252 260 264 263 264 270 275 277 278 278 278 276 278 279 280 281 281 282 281 283 287 291 293 296 300 302 305 304 303 302 300 298 297 295 297 297 297 297 295 292
239 239 236 240 245 249 248 254 257 257 259 265 265 267 268 273 275 276 277 278 277 278 278 278 278 279 280 279 280 283 287 289 292 296 300 303 304 303 300 298 297 295 293 295 296 296 296 297 294
240 238 239 242 243 247 252 251 257 259 262 265 269 269 271 272 272 273 274 275 277 277 277 278 278 278 279 278 279 281 284 287 290 293 297 300 304 303 300 298 296 295 292 292 294 296 295 295 295
241 242 241 243 248 249 251 257 259 261 261 264 268 269 270 270 270 271 273 273 275 277 278 278 278 278 277 278 279 280 282 285 288 290 294 297 300 302 301 301 297 295 293 291 292 294 296 295 294
Height
5897 5898 5898 5899 5900 5900 5899 5900 5900 5898 5898 5897 5896 5896 5894 5894 5894 5895 5892 5890 5890 5889 5889 5888 5887 5887 5886 5885 5884 5883 5883 5882 5881 5880 5879 5878 5877 5877 5876 5875 5875 5874 5873 5873 5872 5872 5872 5871 5871
5898 5899 5899 5900 5900 5900 5900 5900 5900 5899 5898 5897 5896 5896 5895 5894 5893 5893 5891 5891 5890 5889 5889 5888 5888 5887 5886 5885 5885 5884 5883 5882 5881 5880 5879 5878 5877 5876 5876 5875 5875 5874 5873 5873 5872 5872 5871 5871 5870
5897 5899 5900 5900 5901 5900 5899 5898 5899 5898 5898 5897 5896 5896 5895 5894 5893 5892 5891 5891 5890 5889 5889 5888 5888 5887 5886 5885 5885 5884 5883 5882 5881 5880 5879 5878 5877 5876 5876 5875 5874 5874 5873 5873 5872 5871 5871 5870 5870
5898 5899 5900 5902 5902 5901 5900 5899 5899 5899 5898 5897 5896 5896 5895 5895 5894 5893 5892 5891 5890 5889 5889 5888 5888 5887 5886 5885 5885 5884 5883 5882 5880 5879 5878 5877 5877 5876 5875 5875 5874 5873 5873 5872 5872 5871 5870 5870 5869
5897 5898 5900 5902 5903 5901 5901 5900 5900 5899 5898 5897 5897 5895 5895 5894 5894 5893 5892 5891 5890 5890 5889 5888 5887 5887 5886 5885 5885 5884 5883 5881 5880 5879 5878 5877 5876 5875 5875 5874 5873 5873 5872 5872 5871 5870 5870 5869 5868
5896 5897 5901 5902 5902 5901 5901 5900 5900 5899 5898 5897 5896 5895 5895 5894 5893 5892 5892 5891 5890 5890 5889 5888 5887 5887 5886 5885 5884 5883 5882 5881 5880 5879 5878 5877 5876 5875 5874 5873 5873 5872 5871 5871 5870 5870 5869 5868 5867
5896 5896 5900 5901 5901 5900 5901 5900 5899 5899 5898 5897 5896 5895 5894 5893 5892 5892 5891 5891 5890 5889 5889 5888 5887 5886 5886 5885 5884 5883 5882 5881 5879 5878 5877 5876 5875 5874 5873 5873 5872 5871 5870 5870 5869 5869 5868 5868 5867
5894 5896 5899 5900 5900 5900 5900 5899 5899 5898 5898 5897 5896 5895 5894 5894 5893 5892 5891 5890 5890 5889 5889 5888 5887 5886 5885 5885 5884 5883 5881 5880 5879 5878 5876 5875 5874 5874 5873 5872 5871 5870 5870 5869 5869 5868 5868 5867 5866
5893 5896 5898 5899 5900 5899 5899 5898 5898 5898 5897 5896 5895 5895 5894 5893 5893 5892 5891 5890 5889 5889 5888 5887 5887 5886 5885 5884 5883 5882 5881 5879 5878 5877 5876 5874 5873 5873 5872 5871 5870 5869 5869 5868 5868 5867 5867 5866 5866
5892 5894 5896 5898 5899 5898 5897 5897 5897 5897 5896 5895 5894 5893 5893 5893 5892 5892 5891 5890 5889 5888 5887 5886 5886 5885 5884 5883 5882 5881 5880 5879 5877 5876 5875 5874 5872 5872 5871 5870 5869 5869 5868 5867 5867 5866 5866 5865 5865
5890 5892 5893 5895 5895 5895 5895 5895 5896 5896 5895 5894 5893 5892 5892 5892 5892 5891 5890 5889 5888 5888 5887 5886 5885 5884 5883 5882 5881 5880 5879 5878 5877 5875 5874 5873 5871 5871 5870 5869 5868 5868 5867 5866 5866 5865 5865 5864 5864
5888 5890 5890 5892 5892 5893 5893 5894 5894 5894 5894 5893 5892 5891 5891 5891 5891 5890 5889 5888 5887 5887 5886 5885 5884 5883 5882 5881 5880 5879 5878 5877 5876 5875 5873 5871 5870 5870 5869 5868 5867 5866 5866 5865 5865 5864 5864 5863 5863
5885 5887 5888 5888 5889 5890 5891 5892 5893 5893 5893 5892 5890 5891 5891 5890 5890 5889 5888 5887 5886 5885 5885 5884 5883 5882 5881 5880 5878 5877 5876 5875 5874 5873 5872 5870 5869 5868 5867 5866 5866 5865 5864 5863 5863 5862 5862 5861 5861
5883 5883 5885 5886 5887 5887 5889 5890 5891 5891 5891 5890 5889 5889 5889 5889 5888 5888 5887 5886 5886 5885 5884 5883 5882 5881 5880 5879 5877 5876 5875 5873 5872 5871 5870 5869 5868 5866 5865 5865 5864 5863 5862 5862 5861 5860 5860 5860 5860
5878 5881 5882 5883 5884 5885 5886 5888 5889 5889 5889 5889 5888 5888 5887 5886 5886 5886 5885 5885 5884 5884 5883 5882 5881 5880 5879 5877 5876 5874 5873 5872 5870 5869 5868 5867 5866 5864 5863 5862 5862 5861 5860 5859 5859 5858 5858 5858 5858
5875 5878 5880 5881 5882 5883 5885 5886 5887 5887 5887 5887 5887 5886 5885 5884 5885 5884 5884 5883 5883 5882 5882 5881 5880 5879 5878 5876 5874 5873 5872 5870 5868 5867 5866 5865 5864 5863 5861 5860 5859 5859 5858 5857 5857 5856 5856 5855 5855
5874 5876 5877 5879 5880 5881 5882 5883 5885 5885 5885 5885 5885 5884 5883 5883 5883 5883 5882 5882 5881 5881 5880 5879 5878 5877 5876 5875 5873 5872 5870 5869 5867 5866 5864 5863 5862 5861 5859 5858 5857 5856 5855 5854 5854 5854 5853 5853 5852
5872 5873 5874 5877 5879 5879 5879 5881 5882 5882 5882 5883 5883 5882 5882 5881 5882 5881 5880 5879 5879 5879 5878 5877 5876 5875 5874 5873 5872 5870 5869 5867 5866 5864 5862 5861 5860 5858 5857 5856 5854 5853 5852 5851 5851 5851 5850 5850 5850
5868 5870 5872 5873 5876 5876 5877 5878 5879 5880 5880 5880 5880 5881 5880 5879 5879 5878 5877 5877 5877 5876 5876 5875 5874 5873 5872 5871 5869 5868 5867 5866 5864 5862 5860 5859 5857 5856 5854 5853 5852 5850 5849 5848 5848 5847 5847 5847 5846
5865 5866 5868 5870 5872 5873 5874 5875 5876 5877 5877 5878 5878 5878 5878 5878 5877 5876 5876 5875 5874 5874 5873 5873 5872 5871 5870 5868 5867 5866 5865 5864 5862 5860 5858 5856 5855 5853 5851 5850 5849 5848 5846 5845 5845 5844 5844 5843 5843
5860 5863 5865 5867 5869 5869 5870 5872 5873 5874 5874 5874 5875 5875 5875 5875 5874 5872 5873 5873 5872 5871 5871 5870 5870 5868 5867 5866 5865 5864 5863 5861 5860 5858 5856 5854 5852 5850 5849 5848 5846 5845 5843 5842 5842 5841 5840 5840 5839
5857 5860 5861 5863 5865 5866 5868 5868 5870 5870 5870 5870 5871 5872 5872 5872 5870 5869 5869 5869 5869 5869 5868 5868 5867 5865 5864 5863 5862 5861 5860 5859 5857 5855 5853 5851 5849 5847 5846 5844 5842 5841 5840 5839 5838 5837 5837 5836 5835
5854 5856 5857 5858 5860 5862 5863 5865 5866 5866 5865 5866 5867 5867 5868 5869 5868 5867 5866 5866 5866 5865 5865 5864 5863 5862 5861 5860 5859 5858 5857 5856 5854 5852 5851 5849 5847 5845 5843 5842 5840 5839 5837 5836 5835 5834 5833 5832 5831
5850 5852 5853 5854 5856 5858 5860 5861 5861 5861 5861 5861 5862 5862 5864 5865 5864 5863 5863 5862 5862 5862 5861 5860 5860 5859 5858 5857 5856 5855 5854 5853 5851 5850 5848 5846 5844 5842 5841 5839 5837 5836 5835 5833 5832 5830 5829 5828 5827
5846 5848 5850 5851 5852 5854 5857 5856 5856 5856 5856 5856 5858 5858 5859 5860 5860 5859 5859 5859 5858 5857 5856 5856 5856 5855 5855 5854 5853 5852 5851 5849 5848 5846 5844 5843 5841 5839 5837 5836 5834 5833 5831 5830 5828 5827 5825 5824 5823
5841 5844 5846 5847 5849 5851 5852 5852 5853 5853 5853 5853 5854 5854 5855 5855 5856 5855 5855 5855 5854 5852 5852 5852 5852 5852 5851 5850 5849 5848 5847 5846 5845 5843 5841 5839 5837 5835 5833 5832 5831 5829 5828 5826 5825 5823 5822 5820 5819
5837 5838 5842 5844 5845 5846 5847 5848 5847 5847 5848 5848 5849 5849 5850 5851 5851 5850 5850 5850 5849 5848 5848 5848 5848 5847 5847 5846 5845 5844 5843 5842 5841 5839 5837 5835 5833 5831 5829 5827 5826 5825 5824 5822 5821 5819 5817 5816 5815
5834 5836 5838 5839 5840 5841 5843 5844 5844 5842 5842 5843 5843 5843 5844 5845 5846 5845 5845 5845 5845 5844 5844 5843 5843 5842 5842 5842 5841 5840 5839 5838 5836 5835 5833 5831 5829 5827 5825 5824 5822 5821 5820 5818 5816 5815 5813 5812 5811
5828 5830 5832 5834 5835 5836 5838 5841 5838 5838 5838 5837 5837 5838 5839 5840 5840 5839 5839 5840 5839 5839 5839 5838 5838 5837 5837 5836 5835 5835 5834 5833 5832 5830 5829 5827 5825 5823 5820 5819 5817 5816 5815 5814 5812 5811 5809 5808 5806
5823 5825 5827 5829 5829 5830 5832 5836 5832 5831 5831 5831 5832 5832 5833 5833 5833 5833 5833 5833 5833 5833 5833 5832 5832 5832 5831 5830 5830 5829 5829 5828 5827 5826 5824 5822 5821 5818 5815 5813 5812 5810 5809 5808 5807 5806 5805 5803 5802